Regional Weather Roundup
Issued by NWS

Home | Current Version | Previous Version | Graphics & Text | Print | Product List | Glossary On
Versions: 1 2 3 4 5 6 7 8 9 10 11 12 13 14 15 16 17 18 19 20 21 22 23 24 25 26 27 28 29 30 31 32 33 34 35 36 37 38 39 40 41 42 43 44 45 46 47 48 49 50
000
ASUS43 KIND 171609
RWRIN

WEATHER ROUNDUP FOR INDIANA
NATIONAL WEATHER SERVICE INDIANAPOLIS IN
1100 AM EST SAT FEB 17 2018

NOTE: "FAIR" INDICATES FEW OR NO CLOUDS BELOW 12,000 FEET WITH NO
SIGNIFICANT WEATHER AND/OR OBSTRUCTIONS TO VISIBILITY.

* - STATION DOES NOT REPORT WEATHER SUCH AS PRECIPITATION OR FOG.

+ - STATION NOT QUALITY CONTROLLED BY THE NATIONAL WEATHER SERVICE.
    USE DATA WITH CAUTION...ESPECIALLY DEWPOINT AND RELATIVE
    HUMIDITY OBSERVATIONS.

INZ001>003-010>013-019-020-171700-
NORTHWEST INDIANA

CITY           SKY/WX    TMP DP  RH WIND       PRES   REMARKS
GARY /AIRPORT/ CLOUDY    28  21  74 CALM      30.09F
KNOX *+        FAIR      30  27  86 S9        30.09F WCI  22
LA PORTE +     FAIR      26  22  86 S6        30.09S WCI  19
MICHIGAN CITY+ FAIR      28  21  74 S8        30.09S WCI  20
MONTICELLO +   FAIR      31  26  81 S6        30.08F WCI  25
RENSSELAER +   PTSUNNY   32  27  80 S9        30.09F WCI  24
VALPARAISO     FAIR      28  23  81 S5        30.08F WCI  23

$$

LMZ046-743>745-171700-
SOUTHERN LAKE MICHIGAN

STATION/POSITION TIME  TEMP    WIND        PRES    WAVE
                       AIR SEA DIR/SP/G            HT
                 (UTC) (F)     (DEG/KT/KT) (MB)    (FT)
BURNS HARBOR     1540   27     190/ 12/ 15 1019.3F
MICHIGAN CITY    1540   26     170/ 11/ 14   N/A

$$

INZ004-005-014>016-021>024-171700-
NORTH CENTRAL INDIANA

CITY           SKY/WX    TMP DP  RH WIND       PRES   REMARKS
ELKHART        SUNNY     28  21  74 S6        30.08F WCI  22
GOSHEN         FAIR      30  24  78 S10       30.07F WCI  21
LOGANSPORT +   FAIR      32  27  80 S7        30.10F WCI  26
PERU/GRISSOM   PTSUNNY   31  31  99 S8        30.10S WCI  24
ROCHESTER +    FAIR      32  28  86 S9        30.10F WCI  24
SOUTH BEND     FAIR      27  22  81 S9        30.08F WCI  18
WARSAW +       FAIR      30  27  86 CALM      30.08F

$$

INZ006>009-017-018-025>027-171700-
NORTHEAST INDIANA

CITY           SKY/WX    TMP DP  RH WIND       PRES   REMARKS
AUBURN +       PTSUNNY   30  27  86 S3        30.11F
FORT WAYNE     CLOUDY    31  26  82 S7        30.11S WCI  24
HUNTINGTON +   CLOUDY    30  25  81 SE6       30.09F WCI  24
KENDALLVILLE + PTSUNNY   29  25  85 S7        30.08F WCI  22

$$

INZ028-029-035-036-043>045-051>053-171700-
WEST CENTRAL INDIANA

CITY           SKY/WX    TMP DP  RH WIND       PRES   REMARKS
CRAWFORDSVL +  FAIR      30  28  90 S7        30.09F WCI  23
GREENCASTLE +  CLOUDY    32  28  86 CALM      30.09F
LAFAYETTE      FAIR      31  28  89 S5        30.10S WCI  26
TERRE HAUTE    CLOUDY    32  28  85 S10       30.10S WCI  24

$$

INZ030>032-037>040-046>048-054>057-064-065-171700-
CENTRAL INDIANA

CITY           SKY/WX    TMP DP  RH WIND       PRES   REMARKS
ANDERSON       CLOUDY    30  27  86 SE7       30.10F WCI  23
COLUMBUS       FLURRIES  32  27  80 SE5       30.13S WCI  27
FRANKFORT +    CLOUDY    33  29  84 CALM      30.11R
GREENWOOD *+   CLOUDY   N/A N/A N/A SE6       30.10F
INDIANAPOLIS   CLOUDY    32  26  78 SE12      30.09F WCI  23
-EAGLE CREEK   CLOUDY    32  24  72 SE7       30.08F WCI  26
KOKOMO +       PTSUNNY   31  27  85 S8        30.11S WCI  23
MARION +       PTSUNNY   30  26  83 CALM      30.10F
MT COMFORT *+  CLOUDY    30  30 100 S6        30.10S WCI  24
SHELBYVILLE    CLOUDY    33  27  78 SE9       30.08F WCI  25
ZIONSVILLE +   CLOUDY    30  25  80 CALM      30.10R

$$

INZ033-034-041-042-049-050-058-059-171700-
EAST CENTRAL INDIANA

CITY           SKY/WX    TMP DP  RH WIND       PRES   REMARKS
MUNCIE         CLOUDY    32  26  78 SE9       30.08F WCI  24
RICHMOND +     CLOUDY    32  28  86 SE8       30.11S WCI  25

$$

INZ060-061-067>069-081>083-085>088-171700-
SOUTHWEST INDIANA

CITY           SKY/WX    TMP DP  RH WIND       PRES   REMARKS
EVANSVILLE     LGT SNOW  32  32 100 NE5       30.13F VSB 3/4 WCI  27
HUNTINGBURG +  LGT SNOW  34  30  86 E3        30.14S FOG
WASHINGTON +   LGT SNOW  32  31  95 SE3       30.13S VSB 1

$$

INZ062-063-066-070>080-084-089>092-171700-
SOUTH CENTRAL AND SOUTHEAST INDIANA

CITY           SKY/WX    TMP DP  RH WIND       PRES   REMARKS
BATESVILLE +   PTSUNNY   32  30  93 MISG      30.11F
BEDFORD +      LGT SNOW  32  27  80 SE5       30.12S WCI  27
BLOOMINGTON    LGT SNOW  32  27  81 S6        30.11F WCI  26
FRENCH LICK *+ CLOUDY    32 N/A N/A SE3       30.12F VSB 1/2
MADISON *+     CLOUDY    34  28  80 SE5       30.16S WCI  30
NORTH VERNON + CLOUDY    32  27  80 SE3       30.13R
SEYMOUR +      CLOUDY    36  28  75 SE7       30.13F WCI  30

$$





USA.gov is the U.S. government's official web portal to all federal, state and local government web resources and services.